Location: Rounton
(54.4000°N, 1.3500°W)
Time: 14:18:18
(UTC+00:00)

Transit 2A - Pass Details

Date: 30 November 2021
Orbit: 591 x 967 km, 66.7° (Epoch: 21 January)

Event Time Altitude Azimuth Distance (km) Brightness Sun altitude
Rises 07:50:43 0° 314° (NW) 3,616 - -2.1°
Exits shadow 07:51:18 - 315° (NW) 3,409 8.7 -2.1°
Reaches altitude 10° 07:53:21 10° 320° (NW) 2,694 8.2 -1.8°
Maximum altitude 07:59:31 49° 34° (NE) 1,241 7.1 -1.1°
Drops below altitude 10° 08:05:39 10° 109° (ESE) 2,681 10.4 -0.4°
Sets 08:08:16 0° 115° (ESE) 3,597 11.5 -0.1°
